Temp
1 1 0 0 0 0 0 -0 -0 -0 -1 -1 -1 -2 -3 -2 -3 -3 -4 -4 -4 -5 -6 -6 -5 -5 -5
0 -0 0 -1 -0 -0 -0 -0 -1 -1 -1 -1 -2 -3 -3 -2 -3 -3 -4 -4 -5 -5 -6 -6 -6 -6 -6
0 -0 -0 -1 -0 -0 -0 -1 -1 -1 -2 -2 -2 -3 -4 -3 -3 -4 -4 -5 -5 -6 -6 -6 -6 -6 -6
-1 -0 -0 -1 -0 0 -0 -1 -2 -3 -3 -3 -3 -3 -4 -4 -4 -4 -5 -5 -6 -6 -5 -6 -6 -6 -7
-0 -0 -0 -1 -0 -1 -2 -2 -2 -3 -2 -3 -4 -4 -4 -4 -4 -5 -5 -6 -6 -6 -6 -6 -6 -7 -7
-0 -0 -1 -1 -1 -2 -2 -2 -3 -4 -3 -4 -4 -4 -4 -4 -4 -5 -6 -6 -6 -6 -6 -6 -7 -7 -7
-1 -1 -2 -2 -2 -3 -3 -3 -4 -3 -4 -4 -4 -4 -4 -4 -5 -6 -6 -6 -6 -6 -7 -7 -7 -7 -7
-2 -2 -2 -2 -3 -3 -3 -3 -3 -4 -4 -4 -4 -4 -4 -5 -5 -6 -6 -7 -7 -7 -7 -7 -8 -8 -8
-3 -3 -3 -3 -3 -3 -3 -3 -3 -3 -4 -4 -4 -4 -5 -5 -6 -6 -7 -7 -7 -7 -7 -8 -8 -8 -8
-3 -3 -3 -3 -3 -4 -3 -4 -4 -4 -5 -4 -5 -5 -5 -6 -6 -6 -7 -7 -7 -8 -8 -8 -8 -8 -9
-3 -3 -3 -3 -4 -3 -4 -4 -4 -4 -5 -5 -5 -5 -5 -6 -6 -7 -7 -7 -8 -8 -9 -9 -9 -9 -9
-4 -3 -3 -4 -4 -4 -4 -5 -5 -5 -5 -5 -5 -6 -6 -7 -7 -8 -8 -8 -8 -9 -9 -10 -10 -10 -11
-3 -4 -4 -4 -5 -5 -5 -5 -5 -5 -5 -6 -6 -6 -7 -7 -8 -8 -8 -9 -9 -10 -11 -12 -12 -11 -11
-4 -4 -4 -4 -4 -5 -5 -5 -6 -6 -6 -6 -7 -7 -8 -8 -8 -8 -8 -9 -10 -10 -11 -12 -12 -13 -12
-6 -6 -5 -5 -5 -5 -5 -6 -6 -6 -7 -7 -8 -7 -8 -8 -8 -8 -9 -10 -10 -11 -11 -12 -13 -13 -13
-6 -6 -6 -6 -6 -6 -6 -7 -7 -7 -8 -8 -8 -8 -8 -9 -9 -9 -10 -10 -11 -11 -11 -12 -13 -14 -14
-7 -6 -7 -7 -6 -6 -7 -7 -8 -8 -8 -8 -8 -8 -8 -8 -9 -10 -10 -11 -11 -12 -13 -13 -13 -14 -14
Height
3136 3137 3138 3139 3139 3139 3139 3138 3138 3137 3136 3135 3134 3132 3130 3128 3124 3121 3119 3117 3114 3111 3108 3105 3103 3100 3097
3129 3130 3131 3132 3132 3132 3132 3132 3131 3130 3129 3127 3126 3124 3121 3119 3116 3113 3111 3109 3106 3104 3101 3098 3096 3093 3090
3121 3121 3123 3125 3125 3125 3124 3123 3122 3121 3120 3119 3117 3114 3112 3110 3108 3105 3103 3101 3098 3095 3093 3091 3089 3086 3083
3111 3113 3115 3116 3116 3117 3116 3115 3114 3112 3111 3110 3107 3105 3103 3102 3101 3098 3096 3093 3091 3089 3087 3085 3082 3078 3076
3101 3104 3106 3106 3108 3108 3106 3105 3104 3103 3103 3100 3099 3097 3097 3095 3093 3090 3088 3086 3084 3081 3079 3076 3074 3071 3069
3093 3095 3097 3099 3099 3098 3095 3093 3092 3096 3093 3092 3091 3090 3089 3087 3084 3083 3080 3078 3076 3074 3071 3069 3066 3063 3062
3085 3087 3087 3088 3085 3083 3084 3083 3084 3085 3083 3083 3083 3083 3081 3079 3077 3074 3072 3071 3069 3067 3063 3061 3058 3055 3052
3075 3075 3076 3076 3076 3076 3075 3075 3076 3076 3075 3077 3077 3076 3074 3072 3069 3068 3067 3065 3062 3058 3056 3052 3050 3046 3042
3064 3065 3067 3067 3069 3068 3067 3068 3069 3070 3070 3070 3070 3068 3066 3065 3063 3061 3059 3057 3054 3051 3048 3044 3040 3036 3033
3056 3058 3059 3060 3060 3061 3061 3061 3062 3062 3063 3062 3062 3061 3059 3059 3056 3054 3051 3049 3047 3043 3039 3035 3031 3026 3024
3051 3053 3053 3054 3054 3054 3055 3055 3055 3055 3055 3055 3055 3054 3052 3050 3049 3047 3044 3042 3039 3035 3031 3027 3022 3016 3012
3044 3046 3047 3047 3047 3047 3047 3048 3047 3048 3048 3048 3048 3046 3045 3043 3042 3039 3036 3033 3030 3026 3023 3019 3014 3008 3004
3038 3039 3039 3040 3040 3041 3041 3041 3041 3041 3042 3041 3040 3038 3037 3036 3033 3030 3028 3025 3021 3017 3014 3011 3007 3001 2998
3032 3032 3032 3034 3034 3034 3034 3034 3034 3034 3034 3034 3033 3032 3031 3029 3026 3023 3020 3018 3014 3009 3006 3005 3000 2993 2989
3023 3025 3026 3027 3027 3027 3027 3027 3027 3027 3027 3027 3026 3025 3023 3021 3019 3016 3012 3009 3006 3002 2999 2998 2995 2987 2984
3018 3018 3019 3020 3019 3019 3019 3020 3020 3020 3020 3020 3019 3017 3016 3013 3011 3007 3004 3002 3000 2995 2991 2989 2988 2982 2977
3011 3011 3012 3011 3011 3012 3012 3012 3013 3013 3014 3013 3011 3010 3008 3005 3005 3002 2999 2996 2994 2990 2985 2982 2979 2975 2971
Wind_Speed
30 30 29 27 29 29 31 32 32 33 33 35 37 39 38 41 35 33 32 33 35 35 35 35 32 34 33
32 31 31 30 31 32 32 33 33 34 35 37 39 42 41 40 34 31 34 35 34 36 35 32 32 35 31
33 32 32 32 31 32 33 34 35 35 37 38 43 45 45 39 32 32 33 34 34 34 32 32 33 32 33
34 35 34 31 33 34 36 36 37 38 38 39 38 38 33 31 34 32 33 34 33 32 34 33 31 33 32
37 38 36 35 35 35 37 39 42 41 40 33 28 25 30 33 31 32 32 31 31 33 35 33 33 33 33
38 38 36 38 38 41 44 46 47 40 37 28 26 28 31 32 32 31 31 30 32 35 34 35 34 33 34
39 39 43 47 43 39 32 31 36 37 33 26 27 29 30 31 31 31 30 32 35 35 35 36 35 34 35
45 38 35 28 26 20 23 29 27 29 29 26 28 26 29 29 30 31 33 34 34 33 35 35 36 36 36
32 27 29 18 22 23 21 22 22 22 24 30 26 27 29 29 30 31 32 33 33 35 35 35 37 38 37
18 23 23 23 27 26 27 24 26 25 26 27 26 29 30 28 30 31 31 33 34 35 36 36 39 41 40
23 26 25 23 22 24 26 25 24 27 28 27 28 29 30 30 29 31 32 34 35 36 36 37 38 42 44
23 26 24 22 24 23 24 26 27 25 26 28 28 29 30 29 29 30 32 35 36 36 37 37 38 42 44
24 26 24 24 25 25 25 25 25 25 27 28 28 28 29 30 29 31 34 36 37 37 36 35 38 41 40
24 25 24 25 25 25 25 26 25 25 26 27 27 27 28 28 30 32 35 36 37 37 36 34 36 38 38
28 24 23 27 28 29 29 26 25 25 25 25 25 26 27 28 30 33 35 36 36 37 38 33 28 34 35
26 29 31 30 29 28 27 26 24 24 25 25 25 26 27 29 31 35 37 36 36 36 36 33 28 27 30
25 26 25 27 30 27 27 27 27 26 26 25 26 28 30 32 35 37 38 36 33 30 32 30 29 28 28
Wind_Direction
255 257 258 260 263 266 268 271 274 277 279 281 283 286 296 297 288 286 286 290 291 292 293 300 299 298 298
254 255 257 258 261 265 271 275 277 279 282 283 283 284 295 292 280 286 290 291 291 292 296 295 295 297 298
253 255 258 262 267 270 272 273 276 278 280 284 287 289 290 284 281 287 289 287 292 293 294 294 296 297 297
253 256 257 259 264 268 271 274 275 275 282 286 287 290 285 283 288 288 286 290 292 294 295 295 295 296 293
252 258 259 261 262 266 268 270 271 273 278 283 285 282 285 286 285 286 289 289 292 292 295 295 296 294 292
257 262 267 270 270 270 267 266 265 274 270 274 273 283 283 284 285 284 284 287 291 293 294 294 295 292 294
261 274 267 268 268 268 275 274 274 275 270 263 277 282 279 283 284 284 287 291 293 292 293 295 294 293 295
263 261 262 261 264 267 290 276 276 280 275 265 281 277 281 284 286 289 289 290 291 295 295 294 292 294 298
254 261 268 272 275 280 280 265 279 271 266 276 277 285 287 287 288 289 289 292 295 296 295 294 295 296 300
276 275 261 270 275 271 274 274 274 263 275 275 280 290 292 293 291 290 293 295 297 297 296 296 297 297 299
263 261 272 275 268 269 268 275 275 277 277 277 287 292 294 294 294 295 294 297 298 296 296 297 298 299 301
253 255 266 269 274 270 267 275 275 271 273 280 287 290 292 292 294 293 296 299 299 298 299 300 301 303 304
258 267 271 271 272 265 270 268 277 273 278 281 284 287 288 290 292 297 301 302 302 301 301 302 303 301 300
260 264 266 265 260 264 269 269 266 272 275 277 284 289 291 296 300 301 303 302 303 304 304 304 303 301 303
267 257 256 260 262 267 267 267 269 272 276 280 285 290 293 295 297 300 301 303 306 304 303 303 305 302 306
251 255 258 257 262 262 260 264 270 272 275 278 286 289 292 299 303 304 304 304 304 302 302 304 307 304 307
254 256 261 257 259 262 262 264 268 271 275 282 290 295 300 302 302 300 301 303 303 304 306 308 311 312 311